Погода в Демидовке

Украина / Ровненская область     50°25′51″N   25°20′11″E
темп.,
°C
ветер,
м/с
пор.,
м/с
влажн.,
%
обл.,
%
осадки,
мм/ч
давл.,
гПа
погр.,
м
7 августа, вс
вс700:00+18с71195100 0.5 1018445
03:00+16с61195100 1.4 1020516
06:00+14с6129596 0.9 1021493
09:00+14с51091100 1.2 1022464
12:00+15ссв578094 0.0 1023520
15:00+22ссв455034 0.0 10211300
18:00+20с365372 0.0 1021406
21:00+18с116078 0.1 102115
8 августа, пн
пн800:00+15с356359 0.0 102285
03:00+13ссв3771100 0.0 1022149
06:00+15св3766100 0.0 1022215
09:00+16св3566100 0.0 1023238
12:00+18св346299 0.0 1023472
15:00+22св3347100 0.0 10221135
18:00+23всв344769 0.0 10211319
21:00+17св3366100 0.0 102235
9 августа, вт
вт900:00+16ссв3760100 0.0 1023119
03:00+16ссв3668100 0.1 1023163
06:00+15с3477100 0.3 1024107
09:00+14св3695100 2.4 1024213
12:00+15св2590100 0.6 1025257
15:00+20всв356325 1.3 1024992
18:00+21вюв345453 0.0 1023811
21:00+16зюз238393 0.1 102468
10 августа, ср
ср1000:00+15зюз2383100 0.0 102482
03:00+16сз2281100 0.0 102336
06:00+16ссв2374100 0.0 102379
09:00+17ссв2571100 0.0 1024237
12:00+22ссв354751 0.0 10241873
15:00+23св56447 0.0 10231758
18:00+23св454491 0.0 10231937
21:00+18св375998 0.0 1023151
11 августа, чт
чт1100:00+17ссв48607 0.0 1023172
03:00+16св3665100 0.0 1023150
06:00+16св3866100 0.0 1024236
09:00+18всв486575 0.0 1024440
12:00+22св67435 0.0 10241751
15:00+23в564184 0.0 10231668
18:00+23всв454248 0.0 10221578
21:00+18св33606 0.0 102338